TimeEDT,TemperatureF,Dew PointF,Humidity,Sea Level PressureIn,VisibilityMPH,Wind Direction,Wind SpeedMPH,Gust SpeedMPH,PrecipitationIn,Events,Conditions,WindDirDegrees,DateUTC
12:53 AM,50.0,45.0,83,30.05,4.0,Calm,Calm,-,N/A,,Haze,0,2012-10-10 04:53:00
1:53 AM,51.1,46.0,83,30.03,5.0,Calm,Calm,-,N/A,,Haze,0,2012-10-10 05:53:00
2:40 AM,51.8,46.4,82,30.02,5.0,Calm,Calm,-,N/A,,Haze,0,2012-10-10 06:40:00
2:53 AM,50.0,45.0,83,30.00,5.0,Calm,Calm,-,N/A,,Haze,0,2012-10-10 06:53:00
3:35 AM,51.8,46.4,82,30.00,5.0,Calm,Calm,-,N/A,,Haze,0,2012-10-10 07:35:00
3:53 AM,51.1,46.0,83,29.99,4.0,Calm,Calm,-,N/A,,Haze,0,2012-10-10 07:53:00
4:07 AM,51.8,46.4,82,29.98,5.0,Variable,3.5,-,N/A,,Haze,0,2012-10-10 08:07:00
4:53 AM,52.0,46.9,83,29.98,4.0,Calm,Calm,-,N/A,,Haze,0,2012-10-10 08:53:00
5:53 AM,52.0,46.9,83,29.98,4.0,Calm,Calm,-,N/A,,Haze,0,2012-10-10 09:53:00
6:53 AM,50.0,45.0,83,29.98,2.5,Calm,Calm,-,N/A,,Haze,0,2012-10-10 10:53:00
7:19 AM,50.0,44.6,82,29.97,1.5,Calm,Calm,-,N/A,,Haze,0,2012-10-10 11:19:00
7:53 AM,48.9,44.1,83,29.98,2.0,Calm,Calm,-,N/A,,Haze,0,2012-10-10 11:53:00
8:03 AM,48.2,44.6,87,29.98,3.0,Calm,Calm,-,N/A,,Clear,0,2012-10-10 12:03:00
8:31 AM,51.8,46.4,82,29.98,3.0,Calm,Calm,-,N/A,,Haze,0,2012-10-10 12:31:00
8:53 AM,53.1,48.0,83,29.98,6.0,Calm,Calm,-,N/A,,Haze,0,2012-10-10 12:53:00
9:53 AM,57.9,46.0,65,29.97,10.0,WSW,10.4,16.1,N/A,,Partly Cloudy,240,2012-10-10 13:53:00
10:53 AM,59.0,45.0,60,29.96,10.0,Variable,5.8,-,N/A,,Partly Cloudy,0,2012-10-10 14:53:00
11:53 AM,60.1,44.1,55,29.95,10.0,Variable,5.8,-,N/A,,Mostly Cloudy,0,2012-10-10 15:53:00
12:53 PM,62.1,44.1,52,29.92,10.0,SW,9.2,-,N/A,,Mostly Cloudy,220,2012-10-10 16:53:00
1:53 PM,64.9,44.1,47,29.88,10.0,WSW,6.9,-,N/A,,Mostly Cloudy,240,2012-10-10 17:53:00
4:53 PM,66.0,43.0,43,29.85,10.0,Variable,4.6,-,N/A,,Overcast,0,2012-10-10 20:53:00
5:53 PM,62.1,45.0,53,29.90,10.0,NW,9.2,21.9,N/A,,Overcast,310,2012-10-10 21:53:00
6:53 PM,57.9,44.1,60,29.94,10.0,Variable,6.9,17.3,N/A,,Mostly Cloudy,0,2012-10-10 22:53:00
7:53 PM,55.9,41.0,57,29.98,10.0,Variable,5.8,-,N/A,,Clear,0,2012-10-10 23:53:00
8:53 PM,54.0,39.0,57,30.01,10.0,Calm,Calm,-,N/A,,Clear,0,2012-10-11 00:53:00
9:53 PM,53.1,37.9,57,30.03,10.0,Calm,Calm,-,N/A,,Clear,0,2012-10-11 01:53:00
10:53 PM,52.0,37.9,59,30.05,10.0,Calm,Calm,-,N/A,,Scattered Clouds,0,2012-10-11 02:53:00
11:53 PM,51.1,37.9,61,30.06,10.0,Calm,Calm,-,N/A,,Partly Cloudy,0,2012-10-11 03:53:00